FW7026 Weather Reports


Display with metric or nautical units.
time (UTC)temp
F
wind
direction
speed
MPH
gust
MPH
rain 1hr
in
rain 24hr
in
rain mn
in
humidity
%
barometer
mb
20260903015525 55 203 0.0 0.0 0.00 0.00 0.00 73 1018.5
20260903015020 55 218 0.0 0.0 0.00 0.00 0.00 73 1018.5
20260903014514 55 202 0.0 0.0 0.00 0.00 0.00 72 1018.5
20260903014009 55 202 0.0 0.0 0.00 0.00 0.00 72 1018.5
20260903013508 55 205 0.0 0.0 0.00 0.00 0.00 71 1018.5
20260903013009 55 205 0.0 0.0 0.00 0.00 0.00 71 1018.5
20260903012508 56 171 0.0 0.0 0.00 0.00 0.00 71 1018.9
20260903012006 56 171 0.0 0.0 0.00 0.00 0.00 71 1018.9
20260903011500 56 179 0.0 0.0 0.00 0.00 0.00 70 1018.9
20260903010951 56 179 0.0 0.0 0.00 0.00 0.00 70 1018.9
20260903010451 57 207 0.0 0.0 0.00 0.00 0.00 68 1018.5
20260903005948 57 207 0.0 0.0 0.00 0.00 0.00 68 1018.5
20260903005444 57 202 0.0 0.0 0.00 0.00 0.00 68 1018.5
20260903004940 58 177 0.0 0.0 0.00 0.00 0.00 66 1018.5
20260903004435 58 177 0.0 0.0 0.00 0.00 0.00 66 1018.5
20260903003931 58 190 0.0 0.0 0.00 0.00 0.00 66 1018.9
20260903003431 58 182 0.0 0.0 0.00 0.00 0.00 66 1018.9
20260903002926 59 171 0.0 0.0 0.00 0.00 0.00 66 1018.9
20260903002421 59 171 0.0 0.0 0.00 0.00 0.00 66 1018.9
20260903001921 58 199 0.0 0.0 0.00 0.00 0.00 66 1018.9
20260903001421 58 176 0.0 0.0 0.00 0.00 0.00 66 1018.9
20260903000920 58 197 0.0 0.0 0.00 0.00 0.00 65 1018.9
20260903000417 59 180 0.0 0.0 0.00 0.00 0.00 64 1018.9
20260902235914 59 180 0.0 0.0 0.00 0.00 0.00 64 1018.9
20260902235409 59 198 0.0 0.0 0.00 0.00 0.00 65 1018.9
20260902234909 59 198 0.0 0.0 0.00 0.00 0.00 65 1018.9
20260902234404 60 276 0.0 0.0 0.00 0.00 0.00 62 1018.5
20260902233903 60 276 0.0 0.0 0.00 0.00 0.00 62 1018.5
20260902233357 60 276 0.0 0.0 0.00 0.00 0.00 62 1018.5
20260902232856 60 134 0.0 0.0 0.00 0.00 0.00 61 1018.9
20260902232351 60 189 0.0 0.0 0.00 0.00 0.00 62 1018.5
20260902231851 61 133 0.0 0.0 0.00 0.00 0.00 60 1018.5
20260902231346 61 133 0.0 0.0 0.00 0.00 0.00 60 1018.5
20260902230840 62 220 0.0 0.0 0.00 0.00 0.00 60 1018.9
20260902230340 62 189 0.0 0.0 0.00 0.00 0.00 60 1018.9
20260902225834 62 180 0.0 0.0 0.00 0.00 0.00 60 1018.9
20260902225329 62 165 0.0 0.0 0.00 0.00 0.00 59 1018.9
20260902224827 63 179 0.0 0.0 0.00 0.00 0.00 59 1018.9
20260902224323 63 187 0.0 0.0 0.00 0.00 0.00 59 1018.9
20260902223820 63 199 0.0 0.0 0.00 0.00 0.00 59 1019.2
20260902223320 63 164 0.0 0.0 0.00 0.00 0.00 62 1019.6
20260902222819 63 228 0.0 0.0 0.00 0.00 0.00 60 1019.2
20260902222318 63 194 0.0 0.0 0.00 0.00 0.00 61 1019.2
20260902221433 64 204 0.0 0.0 0.00 0.00 0.00 58 1019.2
20260902220924 64 204 0.0 0.0 0.00 0.00 0.00 58 1019.2
20260902220423 65 184 0.0 0.0 0.00 0.00 0.00 56 1019.2
20260902215918 65 184 0.0 0.0 0.00 0.00 0.00 56 1019.2
20260902214228 66 206 0.0 0.0 0.00 0.00 0.00 54 1019.2
20260902213719 66 206 0.0 0.0 0.00 0.00 0.00 54 1019.2
20260902213218 66 206 0.0 0.0 0.00 0.00 0.00 54 1019.2
20260902212534 67 188 0.0 0.0 0.00 0.00 0.00 52 1019.6
20260902212030 67 188 0.0 0.0 0.00 0.00 0.00 52 1019.6
20260902211526 67 197 0.0 0.0 0.00 0.00 0.00 51 1019.6
20260902211021 68 86 0.0 0.0 0.00 0.00 0.00 49 1019.6
20260902210520 68 86 0.0 0.0 0.00 0.00 0.00 49 1019.6
20260902205648 69 171 0.0 0.0 0.00 0.00 0.00 48 1019.6
20260902205143 69 171 0.0 0.0 0.00 0.00 0.00 48 1019.6
20260902204638 69 221 0.0 0.0 0.00 0.00 0.00 47 1019.6
20260902204132 68 206 0.0 0.0 0.00 0.00 0.00 48 1019.6
20260902203628 68 227 0.0 0.0 0.00 0.00 0.00 48 1019.9
20260902203128 70 103 0.0 0.0 0.00 0.00 0.00 45 1019.9
20260902202623 70 103 0.0 0.0 0.00 0.00 0.00 45 1019.9
20260902202120 70 103 0.0 0.0 0.00 0.00 0.00 45 1019.9
20260902201616 70 146 0.0 0.0 0.00 0.00 0.00 46 1020.2
20260902201115 70 146 0.0 0.0 0.00 0.00 0.00 46 1020.2
20260902200610 69 96 0.0 0.0 0.00 0.00 0.00 46 1020.2
20260902200106 70 138 0.0 0.0 0.00 0.00 0.00 46 1020.2
20260902195601 70 138 0.0 0.0 0.00 0.00 0.00 46 1020.2
20260902195101 70 234 0.0 0.0 0.00 0.00 0.00 47 1020.2
20260902194600 70 198 0.0 0.0 0.00 0.00 0.00 45 1020.2
20260902194055 73 182 0.0 0.0 0.00 0.00 0.00 45 1020.6
20260902193552 73 182 0.0 0.0 0.00 0.00 0.00 45 1020.6
20260902193051 73 182 0.0 0.0 0.00 0.00 0.00 45 1020.6
20260902192549 73 198 0.0 0.0 0.00 0.00 0.00 45 1020.2
20260902192048 73 233 0.0 0.0 0.00 0.00 0.00 43 1020.6
20260902191544 72 164 0.0 0.0 0.00 0.00 0.00 45 1020.2
20260902191044 74 152 0.0 0.0 0.00 0.00 0.00 41 1020.6
20260902190539 74 152 0.0 0.0 0.00 0.00 0.00 41 1020.6
20260902190035 74 152 0.0 0.0 0.00 0.00 0.00 41 1020.6
20260902185531 73 52 0.0 0.0 0.00 0.00 0.00 43 1020.6
20260902185027 73 52 0.0 0.0 0.00 0.00 0.00 43 1020.6
20260902184521 73 184 0.0 0.0 0.00 0.00 0.00 44 1020.9
20260902184016 72 189 0.0 0.0 0.00 0.00 0.00 43 1020.6
20260902183513 73 178 0.0 0.0 0.00 0.00 0.00 43 1020.9
20260902183009 73 131 0.0 0.0 0.00 0.00 0.00 46 1020.9
20260902182505 71 171 0.0 0.0 0.00 0.00 0.00 45 1020.9
20260902182000 72 63 0.0 2.0 0.00 0.00 0.00 48 1021.3
20260902181456 72 63 0.0 2.0 0.00 0.00 0.00 48 1021.3
20260902180951 72 63 0.0 2.0 0.00 0.00 0.00 48 1021.3
20260902180445 73 136 0.0 0.0 0.00 0.00 0.00 50 1021.3
20260902175941 72 147 0.0 0.0 0.00 0.00 0.00 51 1020.9
20260902175436 70 256 0.0 0.0 0.00 0.00 0.00 50 1021.3
20260902174931 70 256 0.0 0.0 0.00 0.00 0.00 50 1021.3
20260902174428 69 173 0.0 2.0 0.00 0.00 0.00 52 1021.3
20260902173924 69 210 0.0 0.0 0.00 0.00 0.00 48 1021.3
20260902173422 72 198 0.0 0.0 0.00 0.00 0.00 49 1021.3
20260902172918 71 250 0.0 0.0 0.00 0.00 0.00 47 1021.3
20260902172417 68 149 0.0 0.0 0.00 0.00 0.00 52 1021.6
20260902171912 68 149 0.0 0.0 0.00 0.00 0.00 52 1021.6
20260902171408 68 259 0.0 0.0 0.00 0.00 0.00 51 1021.6
20260902170904 69 155 0.0 8.0 0.00 0.00 0.00 50 1021.6
20260902170359 69 227 0.0 0.0 0.00 0.00 0.00 52 1021.6
20260902165854 72 73 0.0 0.0 0.00 0.00 0.00 49 1021.6
20260902165353 72 66 0.0 0.0 0.00 0.00 0.00 51 1021.3
20260902164848 72 220 0.0 0.0 0.00 0.00 0.00 49 1021.6
20260902164343 70 184 1.0 2.0 0.00 0.00 0.00 50 1021.6
20260902163842 70 184 1.0 2.0 0.00 0.00 0.00 50 1021.6
20260902163337 71 136 0.0 0.0 0.00 0.00 0.00 52 1021.6
20260902162835 68 205 0.0 0.0 0.00 0.00 0.00 53 1021.9
20260902162330 68 205 0.0 0.0 0.00 0.00 0.00 53 1021.9
20260902161825 69 225 0.0 0.0 0.00 0.00 0.00 53 1021.9
20260902161321 67 62 0.0 0.0 0.00 0.00 0.00 62 1021.9
20260902160817 67 62 0.0 2.0 0.00 0.00 0.00 62 1021.9
20260902160312 67 157 0.0 0.0 0.00 0.00 0.00 61 1021.9
20260902155809 67 166 0.0 0.0 0.00 0.00 0.00 62 1021.9
20260902155308 68 209 0.0 0.0 0.00 0.00 0.00 62 1021.9
20260902154804 67 216 0.0 0.0 0.00 0.00 0.00 64 1021.9
20260902154300 67 216 0.0 0.0 0.00 0.00 0.00 64 1021.9
20260902153758 67 211 0.0 0.0 0.00 0.00 0.00 65 1021.9
20260902153253 67 211 0.0 0.0 0.00 0.00 0.00 65 1021.9
20260902152748 66 96 0.0 0.0 0.00 0.00 0.00 65 1022.4
20260902152244 68 176 0.0 8.0 0.00 0.00 0.00 63 1021.9
20260902151739 68 176 0.0 8.0 0.00 0.00 0.00 63 1021.9
20260902151234 68 97 1.0 5.0 0.00 0.00 0.00 64 1021.9
20260902150729 67 190 0.0 0.0 0.00 0.00 0.00 66 1021.9
20260902150225 67 190 0.0 0.0 0.00 0.00 0.00 66 1021.9
20260902145725 66 178 0.0 0.0 0.00 0.00 0.00 66 1021.9
20260902145225 66 110 0.0 0.0 0.00 0.00 0.00 67 1021.9
20260902144720 66 110 0.0 0.0 0.00 0.00 0.00 67 1021.9
20260902143850 65 192 0.0 0.0 0.00 0.00 0.00 70 1022.4
20260902143345 65 192 0.0 0.0 0.00 0.00 0.00 70 1022.4
20260902142841 66 128 0.0 0.0 0.00 0.00 0.00 72 1022.4
20260902142337 66 128 0.0 0.0 0.00 0.00 0.00 72 1022.4
20260902141832 64 177 0.0 0.0 0.00 0.00 0.00 71 1022.4
20260902141328 63 185 0.0 0.0 0.00 0.00 0.00 77 1022.4
20260902140827 63 185 0.0 0.0 0.00 0.00 0.00 77 1022.4
20260902140323 63 177 0.0 0.0 0.00 0.00 0.00 77 1022.4
20260902135821 63 173 0.0 2.0 0.00 0.00 0.00 79 1021.3
20260902135317 62 214 0.0 0.0 0.00 0.00 0.00 81 1021.3
20260902134313 60 204 0.0 0.0 0.00 0.00 0.00 84 1022.4
20260902133808 60 204 0.0 0.0 0.00 0.00 0.00 84 1022.4
20260902133308 59 99 0.0 0.0 0.00 0.00 0.00 84 1022.4
20260902132803 59 99 0.0 0.0 0.00 0.00 0.00 84 1022.4
20260902132258 58 144 0.0 0.0 0.00 0.00 0.00 86 1021.9
20260902131754 58 144 0.0 0.0 0.00 0.00 0.00 86 1021.9
20260902131249 57 214 0.0 0.0 0.00 0.00 0.00 88 1022.4
20260902130749 57 222 0.0 0.0 0.00 0.00 0.00 88 1022.4
20260902130245 56 145 0.0 0.0 0.00 0.00 0.00 88 1022.4
20260902125740 56 120 0.0 0.0 0.00 0.00 0.00 88 1022.4
20260902125236 55 149 0.0 0.0 0.00 0.00 0.00 89 1022.4
20260902124732 55 149 0.0 0.0 0.00 0.00 0.00 89 1022.4
20260902124227 55 149 0.0 0.0 0.00 0.00 0.00 89 1022.4
20260902123723 55 153 0.0 0.0 0.00 0.00 0.00 90 1022.4
20260902123218 55 196 0.0 0.0 0.00 0.00 0.00 90 1022.4
20260902122348 54 145 0.0 0.0 0.00 0.00 0.00 91 1022.7
20260902121847 54 145 0.0 0.0 0.00 0.00 0.00 91 1022.7
20260902121342 54 189 0.0 0.0 0.00 0.00 0.00 92 1022.4
20260902120838 53 10 0.0 0.0 0.00 0.00 0.00 92 1022.4
20260902120334 53 31 0.0 0.0 0.00 0.00 0.00 92 1022.4
20260902115828 52 183 0.0 0.0 0.00 0.00 0.00 92 1022.4
20260902115325 52 183 0.0 0.0 0.00 0.00 0.00 92 1022.4
20260902114821 52 210 0.0 0.0 0.00 0.00 0.00 92 1022.4
20260902114317 52 112 0.0 0.0 0.00 0.00 0.00 92 1022.4
20260902113816 52 112 0.0 0.0 0.00 0.00 0.00 92 1022.4
20260902113138 52 166 0.0 0.0 0.00 0.00 0.00 92 1022.4
20260902112633 52 166 0.0 0.0 0.00 0.00 0.00 92 1022.4
20260902112130 52 166 0.0 0.0 0.00 0.00 0.00 92 1022.4
20260902111625 52 213 0.0 0.0 0.00 0.00 0.00 92 1022.7
20260902111120 52 213 0.0 0.0 0.00 0.00 0.00 92 1022.7
20260902110257 51 187 0.0 0.0 0.00 0.00 0.00 92 1022.4
20260902105756 51 187 0.0 0.0 0.00 0.00 0.00 92 1022.4
20260902105252 50 196 0.0 0.0 0.00 0.00 0.00 92 1022.4
20260902104747 50 196 0.0 0.0 0.00 0.00 0.00 92 1022.4
20260902104243 50 199 0.0 0.0 0.00 0.00 0.00 92 1022.7
20260902103743 49 195 0.0 0.0 0.00 0.00 0.00 92 1022.4
20260902103237 49 195 0.0 0.0 0.00 0.00 0.00 92 1022.4
20260902102733 49 193 0.0 0.0 0.00 0.00 0.00 92 1022.4
20260902102230 49 205 0.0 0.0 0.00 0.00 0.00 92 1022.4
20260902101725 49 205 0.0 0.0 0.00 0.00 0.00 92 1022.4
20260902101220 49 190 0.0 0.0 0.00 0.00 0.00 92 1022.4
20260902100718 49 190 0.0 0.0 0.00 0.00 0.00 92 1022.4
20260902100017 48 201 0.0 0.0 0.00 0.00 0.00 92 1021.9
20260902095517 48 201 0.0 0.0 0.00 0.00 0.00 92 1021.9
20260902095015 48 201 0.0 0.0 0.00 0.00 0.00 92 1021.9
20260902094327 48 193 0.0 0.0 0.00 0.00 0.00 92 1022.4
20260902093826 48 193 0.0 0.0 0.00 0.00 0.00 92 1022.4
20260902093321 48 197 0.0 0.0 0.00 0.00 0.00 92 1022.4
20260902092821 49 202 0.0 0.0 0.00 0.00 0.00 92 1022.4
20260902092316 49 203 0.0 0.0 0.00 0.00 0.00 92 1022.4
20260902090444 49 201 0.0 0.0 0.00 0.00 0.00 92 1021.9
20260902085942 49 201 0.0 0.0 0.00 0.00 0.00 92 1021.9
20260902085437 50 200 0.0 0.0 0.00 0.00 0.00 92 1021.9
20260902084932 49 201 0.0 0.0 0.00 0.00 0.00 92 1021.9
20260902084429 49 201 0.0 0.0 0.00 0.00 0.00 92 1021.9
20260902083924 49 203 0.0 0.0 0.00 0.00 0.00 92 1021.9
20260902083425 49 200 0.0 0.0 0.00 0.00 0.00 92 1021.9
20260902082924 49 200 0.0 0.0 0.00 0.00 0.00 92 1021.9
20260902082420 48 195 0.0 0.0 0.00 0.00 0.00 92 1021.9
20260902081917 48 195 0.0 0.0 0.00 0.00 0.00 92 1021.9
20260902081227 49 204 0.0 0.0 0.00 0.00 0.00 91 1021.6
20260902080721 49 204 0.0 0.0 0.00 0.00 0.00 91 1021.6
20260902080218 49 204 0.0 0.0 0.00 0.00 0.00 91 1021.6
20260902075424 49 210 0.0 0.0 0.00 0.00 0.00 91 1021.6
20260902074919 49 210 0.0 0.0 0.00 0.00 0.00 91 1021.6
20260902074414 49 195 0.0 0.0 0.00 0.00 0.00 91 1021.3
20260902073909 49 195 0.0 0.0 0.00 0.00 0.00 91 1021.3
20260902073405 49 201 0.0 0.0 0.00 0.00 0.00 91 1021.3
20260902072901 49 199 0.0 0.0 0.00 0.00 0.00 91 1021.3
20260902072351 49 199 0.0 0.0 0.00 0.00 0.00 91 1021.3
20260902071847 49 199 0.0 0.0 0.00 0.00 0.00 91 1021.3
20260902071347 49 197 0.0 0.0 0.00 0.00 0.00 91 1021.3
20260902070843 48 197 0.0 0.0 0.00 0.00 0.00 91 1021.3
20260902070338 49 194 0.0 0.0 0.00 0.00 0.00 91 1021.3
20260902065836 49 197 0.0 0.0 0.00 0.00 0.00 90 1021.3
20260902065332 49 197 0.0 0.0 0.00 0.00 0.00 90 1021.3
20260902064827 49 204 0.0 0.0 0.00 0.00 0.00 90 1021.3
20260902064323 49 204 0.0 0.0 0.00 0.00 0.00 90 1021.3
20260902063818 50 199 0.0 0.0 0.00 0.00 0.00 90 1021.3
20260902063226 50 206 0.0 0.0 0.00 0.00 0.00 90 1021.3
20260902062720 50 206 0.0 0.0 0.00 0.00 0.00 90 1021.3
20260902062215 50 199 0.0 0.0 0.00 0.00 0.00 89 1021.3
20260902061713 50 195 0.0 0.0 0.00 0.00 0.00 89 1021.3
20260902061209 50 192 0.0 0.0 0.00 0.00 0.00 89 1021.3
20260902060706 50 197 0.0 0.0 0.00 0.00 0.00 87 1020.9
20260902060201 50 197 0.0 0.0 0.00 0.00 0.00 87 1020.9
20260902055657 50 192 0.0 0.0 0.00 0.00 0.00 86 1020.9
20260902055153 50 192 0.0 0.0 0.00 0.00 0.00 86 1020.9
20260902054648 50 194 0.0 0.0 0.00 0.00 0.00 85 1020.9
20260902054143 50 199 0.0 0.0 0.00 0.00 0.00 84 1020.9
20260902053639 50 199 0.0 0.0 0.00 0.00 0.00 84 1020.9
20260902053139 50 197 0.0 0.0 0.00 0.00 0.00 83 1020.9
20260902052633 50 199 0.0 0.0 0.00 0.00 0.00 82 1020.9
20260902052129 50 199 0.0 0.0 0.00 0.00 0.00 82 1020.9
20260902051627 50 203 0.0 0.0 0.00 0.00 0.00 81 1020.9
20260902051122 50 203 0.0 0.0 0.00 0.00 0.00 81 1020.9
20260902050621 51 204 0.0 0.0 0.00 0.00 0.00 80 1020.9
20260902050117 50 198 0.0 0.0 0.00 0.00 0.00 79 1020.6
20260902045612 50 191 0.0 0.0 0.00 0.00 0.00 78 1020.9
20260902045109 51 202 0.0 0.0 0.00 0.00 0.00 78 1020.6
20260902044608 51 198 0.0 0.0 0.00 0.00 0.00 77 1020.6
20260902044104 51 198 0.0 0.0 0.00 0.00 0.00 77 1020.6
20260902043559 51 195 0.0 0.0 0.00 0.00 0.00 76 1020.6
20260902043054 51 195 0.0 0.0 0.00 0.00 0.00 76 1020.6
20260902042554 51 202 0.0 0.0 0.00 0.00 0.00 76 1020.6
20260902042050 51 202 0.0 0.0 0.00 0.00 0.00 76 1020.6
20260902041549 52 195 0.0 0.0 0.00 0.00 0.00 75 1020.2
20260902041044 51 196 0.0 0.0 0.00 0.00 0.00 75 1020.2
20260902040543 52 200 0.0 0.0 0.00 0.00 0.00 75 1020.2
20260902040038 52 200 0.0 0.0 0.00 0.00 0.00 75 1020.2
20260902035537 52 209 0.0 0.0 0.00 0.00 0.00 74 1020.6
20260902035033 52 209 0.0 0.0 0.00 0.00 0.00 74 1020.6
20260902034532 52 209 0.0 0.0 0.00 0.00 0.00 74 1020.6
20260902034031 52 195 0.0 0.0 0.00 0.00 0.00 73 1020.2
20260902033531 52 195 0.0 0.0 0.00 0.00 0.00 73 1020.2
20260902033026 53 195 0.0 0.0 0.00 0.00 0.00 72 1020.6
20260902032524 53 204 0.0 0.0 0.00 0.00 0.00 71 1020.2
20260902032020 53 204 0.0 0.0 0.00 0.00 0.00 71 1020.2
20260902031514 53 210 0.0 0.0 0.00 0.00 0.00 71 1020.2
20260902031010 53 202 0.0 0.0 0.00 0.00 0.00 70 1020.2
20260902030505 54 201 0.0 0.0 0.00 0.00 0.00 69 1020.2
20260902030005 54 204 0.0 0.0 0.00 0.00 0.00 68 1020.2
20260902025500 54 204 0.0 0.0 0.00 0.00 0.00 68 1020.2
20260902025000 54 204 0.0 0.0 0.00 0.00 0.00 66 1019.9
20260902024455 54 204 0.0 0.0 0.00 0.00 0.00 66 1019.9
20260902023950 55 198 0.0 0.0 0.00 0.00 0.00 66 1019.9
20260902023446 55 203 0.0 0.0 0.00 0.00 0.00 64 1019.9
20260902022945 55 203 0.0 0.0 0.00 0.00 0.00 64 1019.9
20260902022441 55 203 0.0 0.0 0.00 0.00 0.00 64 1019.9
20260902021936 56 206 0.0 0.0 0.00 0.00 0.00 61 1019.9
20260902021431 56 206 0.0 0.0 0.00 0.00 0.00 61 1019.9
20260902020926 56 190 0.0 0.0 0.00 0.00 0.00 61 1019.9
20260902020423 56 211 0.0 0.0 0.00 0.00 0.00 59 1019.6
20260902015918 56 211 0.0 0.0 0.00 0.00 0.00 59 1019.6